Location: *
(45.5667°S, 177.5167°W)
Time: 16:12:18
(UTC+00:00)

H-2A R/B - Pass Details

Date: 29 May 2022
Orbit: 576 x 653 km, 98.5° (Epoch: 28 June)

Event Time Altitude Azimuth Distance (km) Brightness Sun altitude
Exits shadow 05:52:42 12° 159° (SSE) 1,932 4.3 -16.1°
Drops below altitude 10° 05:53:12 10° 163° (SSE) 2,073 4.4 -16.2°
Sets 05:55:58 0° 180° (S) 3,002 5.4 -16.7°
